VE3KCY Weather Reports


Display with metric or nautical units.
time (UTC)temp
F
wind
direction
speed
MPH
gust
MPH
rain 1hr
in
rain 24hr
in
rain mn
in
humidity
%
barometer
mb
20260510104508 34 270 0.0 4.0 0.00 0.17 0.00 82 1012.2
20260510103011 34 284 1.0 5.0 0.00 0.17 0.00 82 1011.9
20260510101520 34 288 0.0 4.0 0.00 0.17 0.00 81 1011.6
20260510100023 34 283 0.0 3.0 0.00 0.17 0.00 81 1011.2
20260510094526 34 337 1.0 5.0 0.00 0.17 0.00 82 1010.9
20260510093009 34 343 0.0 2.0 0.00 0.17 0.00 82 1010.4
20260510091523 34 277 0.0 3.0 0.00 0.17 0.00 82 1010.2
20260510090024 34 320 0.0 3.0 0.00 0.17 0.00 82 1010.0
20260510084524 34 327 0.0 3.0 0.00 0.17 0.00 82 1009.8
20260510083025 34 311 0.0 3.0 0.00 0.17 0.00 82 1009.8
20260510081512 34 347 0.0 4.0 0.00 0.17 0.00 82 1009.7
20260510080018 35 296 0.0 4.0 0.00 0.17 0.00 81 1009.6
20260510074522 35 320 0.0 4.0 0.00 0.17 0.00 80 1009.5
20260510073029 35 347 0.0 4.0 0.00 0.17 0.00 80 1009.4
20260510071528 36 289 0.0 3.0 0.00 0.17 0.00 79 1009.4
20260510070015 36 353 1.0 5.0 0.00 0.17 0.00 78 1009.3
20260510064538 37 8 0.0 4.0 0.00 0.17 0.00 77 1009.3
20260510063027 37 297 1.0 5.0 0.00 0.17 0.00 76 1009.2
20260510061524 38 324 1.0 7.0 0.00 0.17 0.00 75 1009.3
20260510060026 38 357 1.0 6.0 0.00 0.17 0.00 75 1009.3
20260510054518 39 292 0.0 7.0 0.00 0.17 0.00 73 1009.1
20260510053038 39 359 2.0 5.0 0.00 0.17 0.00 73 1008.8
20260510051537 40 310 0.0 5.0 0.00 0.17 0.00 72 1008.5
20260510050026 41 326 1.0 5.0 0.00 0.17 0.00 71 1008.5
20260510044528 41 224 2.0 5.0 0.00 0.17 0.00 71 1008.2
20260510043020 42 302 1.0 3.0 0.00 0.17 0.00 71 1008.2
20260510041527 42 299 1.0 2.0 0.00 0.17 0.00 71 1008.1
20260510040028 42 310 0.0 2.0 0.00 0.17 0.00 70 1007.8
20260510034508 43 342 0.0 3.0 0.00 0.17 0.17 70 1007.4
20260510033007 43 265 1.0 3.0 0.00 0.17 0.17 70 1007.3
20260510031505 43 335 0.0 2.0 0.00 0.17 0.17 70 1007.3
20260510030004 43 317 0.0 2.0 0.00 0.17 0.17 74 1007.1
20260510024507 44 303 0.0 2.0 0.00 0.17 0.17 73 1007.0
20260510023009 45 347 0.0 2.0 0.00 0.17 0.17 70 1006.8
20260510021508 45 62 1.0 4.0 0.00 0.17 0.17 72 1006.6
20260510020009 46 4 0.0 3.0 0.00 0.17 0.17 69 1006.4
20260510014509 47 347 1.0 6.0 0.00 0.17 0.17 67 1006.0
20260510013012 47 350 2.0 8.0 0.00 0.17 0.17 69 1006.1
20260510011514 48 23 1.0 7.0 0.00 0.17 0.17 73 1005.5
20260510010014 49 243 2.0 6.0 0.00 0.17 0.17 74 1004.8
20260510004512 51 316 4.0 6.0 0.00 0.17 0.17 71 1004.3
20260510003010 51 279 0.0 5.0 0.00 0.17 0.17 74 1003.8
20260510001512 52 281 1.0 5.0 0.00 0.17 0.17 75 1003.6
20260510000012 53 264 0.0 4.0 0.00 0.17 0.17 74 1003.4
20260509234516 53 239 1.0 7.0 0.00 0.17 0.17 74 1003.3
20260509233019 53 259 2.0 5.0 0.00 0.17 0.17 74 1002.9
20260509231508 54 311 0.0 7.0 0.00 0.17 0.17 76 1002.7
20260509230014 54 260 3.0 8.0 0.00 0.17 0.17 82 1002.6
20260509224515 54 271 3.0 9.0 0.00 0.17 0.17 82 1002.3
20260509223018 54 285 1.0 7.0 0.00 0.17 0.17 81 1002.2
20260509221517 54 215 2.0 9.0 0.00 0.17 0.17 80 1001.7
20260509220012 55 168 2.0 9.0 0.01 0.17 0.17 80 1001.5
20260509214517 56 204 2.0 9.0 0.06 0.17 0.17 84 1001.7
20260509213020 54 179 3.0 12.0 0.15 0.17 0.17 86 1001.6
20260509211520 53 262 2.0 8.0 0.17 0.17 0.17 89 1001.7
20260509210020 52 185 1.0 10.0 0.16 0.16 0.16 90 1001.9
20260509204514 52 238 4.0 12.0 0.11 0.11 0.11 87 1002.6
20260509203030 54 131 3.0 14.0 0.02 0.02 0.02 82 1002.0
20260509201522 56 281 4.0 13.0 0.00 0.00 0.00 74 1001.3
20260509200021 57 143 4.0 9.0 0.00 0.00 0.00 69 1001.4
20260509194534 58 198 3.0 9.0 0.00 0.00 0.00 67 1001.4
20260509193023 58 203 5.0 10.0 0.00 0.00 0.00 65 1001.3
20260509191522 57 221 5.0 11.0 0.00 0.00 0.00 62 1002.0
20260509190024 58 189 4.0 9.0 0.00 0.00 0.00 64 1002.2
20260509184523 58 135 4.0 10.0 0.00 0.00 0.00 60 1001.8
20260509183017 57 136 4.0 11.0 0.00 0.00 0.00 63 1002.2
20260509181521 58 255 5.0 11.0 0.00 0.00 0.00 65 1002.2
20260509180007 59 181 4.0 8.0 0.00 0.00 0.00 63 1002.6
20260509174518 58 141 3.0 9.0 0.00 0.00 0.00 64 1002.6
20260509173012 58 201 4.0 10.0 0.00 0.00 0.00 64 1002.9
20260509171522 60 160 5.0 15.0 0.00 0.00 0.00 63 1002.7
20260509170021 60 200 3.0 13.0 0.00 0.00 0.00 61 1002.8
20260509164505 61 166 5.0 10.0 0.00 0.00 0.00 62 1003.3
20260509163012 60 162 4.0 13.0 0.00 0.00 0.00 68 1003.6
20260509161525 59 254 2.0 8.0 0.00 0.00 0.00 68 1004.0
20260509160022 59 207 3.0 10.0 0.00 0.00 0.00 70 1004.5
20260509154524 59 224 4.0 12.0 0.00 0.00 0.00 69 1004.6
20260509153014 57 123 4.0 9.0 0.00 0.00 0.00 73 1004.5
20260509151516 57 189 3.0 9.0 0.00 0.00 0.00 73 1004.5
20260509150028 57 188 3.0 10.0 0.00 0.00 0.00 73 1004.5
20260509144522 55 224 4.0 8.0 0.00 0.00 0.00 74 1004.7
20260509143026 55 226 4.0 7.0 0.00 0.00 0.00 77 1004.8
20260509141512 54 165 3.0 8.0 0.00 0.00 0.00 79 1004.9
20260509140018 52 229 2.0 11.0 0.00 0.01 0.00 81 1004.9
20260509134523 51 179 3.0 6.0 0.00 0.04 0.00 86 1004.9
20260509133026 49 172 1.0 4.0 0.00 0.07 0.00 92 1005.1
20260509131530 47 136 2.0 6.0 0.00 0.08 0.00 94 1005.3
20260509130016 46 184 1.0 3.0 0.00 0.08 0.00 94 1005.5
20260509124522 45 143 1.0 4.0 0.00 0.08 0.00 93 1005.3
20260509123025 45 179 2.0 5.0 0.00 0.08 0.00 93 1005.5
20260509121524 45 125 2.0 4.0 0.00 0.08 0.00 92 1005.6
20260509120031 44 191 2.0 5.0 0.00 0.08 0.00 92 1005.6
20260509114517 44 145 1.0 2.0 0.00 0.08 0.00 92 1005.5
20260509113022 43 169 1.0 3.0 0.00 0.08 0.00 1005.6
20260509111524 41 164 1.0 3.0 0.00 0.08 0.00 91 1005.5
20260509110028 39 172 0.0 2.0 0.00 0.08 0.00 91 1005.5